When you browse on this site, cookies collect data to enhance your experience and personalize the content and advertising you see.
Visit our Privacy Policy to learn more. By continuing to use the site, you agree to this use of cookies and data.
  • In Slovakia
  • List of Countries
  • For 7 days
  • Water Temperature
  • Satellite Maps
  • Weather Map
  • Weather Widgets
  • user-avatar
    Login

    Hourly Weather Ghazni

    Today, 19 July, Friday

    Time Temperature Precipitation Wind Pressure Humidity
    00:00 +25°C° 0.4 mm 3 mps 587 mmHg 54%
    01:00 +24°C° 0.4 mm 2 mps 586 mmHg 58%
    02:00 +24°C° 0.4 mm 2 mps 586 mmHg 61%
    03:00 +23°C° 0 mm 1 mps 586 mmHg 62%
    04:00 +23°C° 0 mm 1 mps 586 mmHg 64%
    05:00 +22°C° 0 mm 1 mps 586 mmHg 63%
    06:00 +23°C° 0 mm 1 mps 587 mmHg 58%
    07:00 +24°C° 0 mm 1 mps 587 mmHg 53%
    08:00 +25°C° 0 mm 1 mps 588 mmHg 48%
    09:00 +26°C° 0 mm 1 mps 588 mmHg 40%
    10:00 +28°C° 0 mm 1 mps 588 mmHg 33%
    11:00 +29°C° 0 mm 1 mps 589 mmHg 22%
    12:00 +31°C° 0 mm 2 mps 589 mmHg 19%
    13:00 +32°C° 0 mm 2 mps 589 mmHg 15%
    14:00 +34°C° 0 mm 2 mps 589 mmHg 12%
    15:00 +34°C° 0 mm 2 mps 589 mmHg 12%
    16:00 +35°C° 0 mm 3 mps 588 mmHg 11%
    17:00 +34°C° 0 mm 3 mps 588 mmHg 12%
    18:00 +33°C° 0 mm 4 mps 588 mmHg 17%
    19:00 +32°C° 0 mm 4 mps 588 mmHg 21%
    20:00 +29°C° 0 mm 5 mps 588 mmHg 26%
    21:00 +28°C° 0.2 mm 4 mps 588 mmHg 36%
    22:00 +27°C° 0.2 mm 3 mps 588 mmHg 45%
    23:00 +26°C° 0.2 mm 2 mps 588 mmHg 55%

    Tomorrow, 20 July, Saturday

    Time Temperature Precipitation Wind Pressure Humidity
    00:00 +25°C° 0.3 mm 2 mps 588 mmHg 56%
    01:00 +25°C° 0.3 mm 1 mps 588 mmHg 57%
    02:00 +24°C° 0.3 mm 1 mps 588 mmHg 58%
    03:00 +24°C° 0.1 mm 1 mps 588 mmHg 59%
    04:00 +23°C° 0.1 mm 1 mps 587 mmHg 60%
    05:00 +21°C° 0.1 mm 0 mps 587 mmHg 60%
    06:00 +24°C° 0 mm 1 mps 588 mmHg 56%
    07:00 +25°C° 0 mm 1 mps 589 mmHg 51%
    08:00 +25°C° 0 mm 1 mps 589 mmHg 46%
    09:00 +27°C° 0 mm 1 mps 589 mmHg 41%
    10:00 +28°C° 0 mm 1 mps 590 mmHg 36%
    11:00 +29°C° 0 mm 1 mps 590 mmHg 30%
    12:00 +30°C° 0 mm 2 mps 590 mmHg 27%
    13:00 +31°C° 0 mm 2 mps 590 mmHg 24%
    14:00 +33°C° 0 mm 3 mps 590 mmHg 20%
    15:00 +34°C° 0 mm 3 mps 590 mmHg 19%
    16:00 +34°C° 0 mm 2 mps 590 mmHg 18%
    17:00 +35°C° 0 mm 2 mps 589 mmHg 17%
    18:00 +33°C° 0 mm 4 mps 589 mmHg 23%
    19:00 +32°C° 0 mm 5 mps 589 mmHg 28%
    20:00 +29°C° 0 mm 6 mps 589 mmHg 34%
    21:00 +28°C° 0.2 mm 5 mps 589 mmHg 40%
    22:00 +27°C° 0.2 mm 4 mps 589 mmHg 46%
    23:00 +26°C° 0.2 mm 3 mps 589 mmHg 52%

    Day after tomorrow, 21 July, Sunday

    Time Temperature Precipitation Wind Pressure Humidity
    00:00 +26°C° 0.2 mm 3 mps 589 mmHg 54%
    01:00 +25°C° 0.2 mm 2 mps 588 mmHg 56%
    02:00 +25°C° 0.2 mm 2 mps 588 mmHg 59%
    03:00 +24°C° 0 mm 1 mps 588 mmHg 58%
    04:00 +24°C° 0 mm 1 mps 588 mmHg 57%
    05:00 +22°C° 0 mm 0 mps 588 mmHg 56%
    06:00 +24°C° 0 mm 1 mps 588 mmHg 51%
    07:00 +25°C° 0 mm 1 mps 589 mmHg 46%
    08:00 +26°C° 0 mm 1 mps 589 mmHg 41%
    09:00 +27°C° 0 mm 1 mps 590 mmHg 36%
    10:00 +28°C° 0 mm 1 mps 590 mmHg 32%
    11:00 +30°C° 0 mm 1 mps 590 mmHg 27%
    12:00 +31°C° 0 mm 1 mps 590 mmHg 23%
    13:00 +32°C° 0 mm 2 mps 590 mmHg 19%
    14:00 +34°C° 0 mm 2 mps 590 mmHg 15%
    15:00 +35°C° 0 mm 2 mps 590 mmHg 14%
    16:00 +35°C° 0 mm 2 mps 589 mmHg 13%
    17:00 +35°C° 0 mm 2 mps 589 mmHg 12%
    18:00 +34°C° 0 mm 2 mps 589 mmHg 14%
    19:00 +32°C° 0 mm 2 mps 589 mmHg 16%
    20:00 +31°C° 0 mm 2 mps 589 mmHg 18%
    21:00 +30°C° 0 mm 2 mps 589 mmHg 26%
    22:00 +29°C° 0 mm 2 mps 589 mmHg 34%
    23:00 +27°C° 0 mm 3 mps 589 mmHg 42%

    22 July, Monday

    Time Temperature Precipitation Wind Pressure Humidity
    00:00 +27°C° 0 mm 2 mps 589 mmHg 42%
    01:00 +26°C° 0 mm 2 mps 588 mmHg 42%
    02:00 +26°C° 0 mm 2 mps 588 mmHg 42%
    03:00 +25°C° 0 mm 2 mps 588 mmHg 37%
    04:00 +25°C° 0 mm 2 mps 588 mmHg 32%
    05:00 +24°C° 0 mm 3 mps 587 mmHg 28%
    06:00 +25°C° 0 mm 3 mps 588 mmHg 24%
    07:00 +26°C° 0 mm 3 mps 588 mmHg 21%
    08:00 +27°C° 0 mm 3 mps 589 mmHg 17%
    09:00 +29°C° 0 mm 3 mps 589 mmHg 15%
    10:00 +30°C° 0 mm 3 mps 590 mmHg 13%
    11:00 +33°C° 0 mm 4 mps 590 mmHg 10%
    12:00 +33°C° 0 mm 3 mps 590 mmHg 9%
    13:00 +34°C° 0 mm 3 mps 590 mmHg 8%
    14:00 +35°C° 0 mm 2 mps 589 mmHg 7%
    15:00 +35°C° 0 mm 2 mps 589 mmHg 7%
    16:00 +36°C° 0 mm 2 mps 589 mmHg 7%
    17:00 +36°C° 0 mm 2 mps 589 mmHg 7%
    18:00 +35°C° 0 mm 2 mps 588 mmHg 8%
    19:00 +32°C° 0 mm 2 mps 588 mmHg 10%
    20:00 +31°C° 0 mm 2 mps 588 mmHg 11%
    21:00 +30°C° 0 mm 2 mps 588 mmHg 16%
    22:00 +29°C° 0 mm 2 mps 588 mmHg 22%
    23:00 +27°C° 0 mm 2 mps 587 mmHg 27%

    23 July, Tuesday

    Time Temperature Precipitation Wind Pressure Humidity
    00:00 +27°C° 0 mm 2 mps 587 mmHg 29%
    01:00 +27°C° 0 mm 2 mps 587 mmHg 30%
    02:00 +26°C° 0 mm 2 mps 587 mmHg 31%
    03:00 +26°C° 0 mm 2 mps 586 mmHg 30%
    04:00 +25°C° 0 mm 2 mps 586 mmHg 29%
    05:00 +24°C° 0 mm 2 mps 586 mmHg 28%
    06:00 +25°C° 0 mm 2 mps 586 mmHg 26%
    07:00 +26°C° 0 mm 2 mps 587 mmHg 24%
    08:00 +27°C° 0 mm 2 mps 588 mmHg 23%
    09:00 +28°C° 0 mm 2 mps 588 mmHg 21%
    10:00 +30°C° 0 mm 1 mps 588 mmHg 20%
    11:00 +31°C° 0 mm 1 mps 588 mmHg 19%
    12:00 +32°C° 0 mm 2 mps 588 mmHg 17%
    13:00 +34°C° 0 mm 2 mps 588 mmHg 16%
    14:00 +35°C° 0 mm 3 mps 588 mmHg 14%
    15:00 +36°C° 0 mm 3 mps 588 mmHg 13%
    16:00 +36°C° 0 mm 3 mps 588 mmHg 13%
    17:00 +37°C° 0 mm 3 mps 588 mmHg 12%
    18:00 +36°C° 0 mm 3 mps 588 mmHg 13%
    19:00 +35°C° 0 mm 3 mps 588 mmHg 13%
    20:00 +34°C° 0 mm 3 mps 588 mmHg 14%
    21:00 +33°C° 0 mm 3 mps 588 mmHg 16%
    22:00 +30°C° 0 mm 4 mps 587 mmHg 18%
    23:00 +29°C° 0 mm 4 mps 587 mmHg 20%

    24 July, Wednesday

    Time Temperature Precipitation Wind Pressure Humidity
    00:00 +28°C° 0 mm 3 mps 587 mmHg 21%
    01:00 +27°C° 0 mm 3 mps 586 mmHg 21%
    02:00 +26°C° 0 mm 3 mps 586 mmHg 22%
    03:00 +26°C° 0 mm 3 mps 586 mmHg 22%
    04:00 +25°C° 0 mm 3 mps 585 mmHg 23%
    05:00 +24°C° 0 mm 3 mps 585 mmHg 23%
    06:00 +26°C° 0 mm 3 mps 586 mmHg 21%
    07:00 +27°C° 0 mm 2 mps 587 mmHg 20%
    08:00 +28°C° 0 mm 2 mps 587 mmHg 18%
    09:00 +29°C° 0 mm 2 mps 588 mmHg 16%
    10:00 +31°C° 0 mm 2 mps 588 mmHg 14%
    11:00 +32°C° 0 mm 2 mps 588 mmHg 12%
    12:00 +34°C° 0 mm 2 mps 588 mmHg 11%
    13:00 +35°C° 0 mm 3 mps 588 mmHg 10%
    14:00 +36°C° 0 mm 3 mps 588 mmHg 10%
    15:00 +37°C° 0 mm 3 mps 588 mmHg 9%
    16:00 +37°C° 0 mm 3 mps 588 mmHg 9%
    17:00 +38°C° 0 mm 3 mps 587 mmHg 8%
    18:00 +36°C° 0 mm 3 mps 587 mmHg 9%
    19:00 +35°C° 0 mm 4 mps 587 mmHg 10%
    20:00 +33°C° 0 mm 4 mps 587 mmHg 10%
    21:00 +32°C° 0 mm 4 mps 587 mmHg 12%
    22:00 +29°C° 0 mm 4 mps 586 mmHg 13%
    23:00 +28°C° 0 mm 4 mps 586 mmHg 15%
    Show more